This is the latest recevied weather packets stored in our database for station/object N5CSU. If no packets are shown the sender has not sent any weather packets the latest 1 day(s).
| Time | Temp. | Humidity | Pressure | Rain* | Wind** | Luminosity | Snow |
|---|---|---|---|---|---|---|---|
| 1778065257 | 14.44° C | 81% | 1011.7 hPa | 0 mm | - | 0 W/m² | - |
| 1778064953 | 14.44° C | 78% | 1011.7 hPa | 0 mm | - | 0 W/m² | - |
| 1778064046 | 15° C | 79% | 1011.3 hPa | 0 mm | - | 0 W/m² | - |
| 1778063743 | 15° C | 79% | 1011.2 hPa | 0 mm | - | 0 W/m² | - |
| 1778063138 | 15° C | 79% | 1011.1 hPa | 0 mm | - | 0 W/m² | - |
| 1778061927 | 15° C | 78% | 1010.5 hPa | 0 mm | - | 0 W/m² | - |
| 1778061625 | 15° C | 79% | 1010.7 hPa | 0 mm | - | 0 W/m² | - |
| 1778061019 | 15.56° C | 81% | 1010.7 hPa | 0 mm | - | 0 W/m² | - |
| 1778060717 | 15.56° C | 77% | 1010.4 hPa | 0 mm | - | 0 W/m² | - |
| 1778060415 | 15.56° C | 76% | 1010.7 hPa | 0 mm | - | 0 W/m² | - |
| 1778060113 | 15.56° C | 77% | 1010.8 hPa | 0 mm | - | 0 W/m² | - |
| 1778059508 | 16.11° C | 75% | 1010.5 hPa | 0 mm | - | 0 W/m² | - |
| 1778058298 | 16.11° C | 77% | 1010.5 hPa | 0 mm | - | 0 W/m² | - |
| 1778056780 | 16.67° C | 78% | 1010 hPa | 0 mm | - | 0 W/m² | - |
| 1778055567 | 16.67° C | 77% | 1009.6 hPa | 0 mm | - | 0 W/m² | - |
| 1778054357 | 16.67° C | 77% | 1009.9 hPa | 0 mm | - | 0 W/m² | - |
| 1778053751 | 16.67° C | 76% | 1009.8 hPa | 0 mm | - | 0 W/m² | - |
| 1778052540 | 17.22° C | 77% | 1010.2 hPa | 0 mm | - | 0 W/m² | - |
| 1778051935 | 17.22° C | 77% | 1009.9 hPa | 0 mm | - | 0 W/m² | - |
| 1778051633 | 17.22° C | 77% | 1010 hPa | 0 mm | - | 0 W/m² | - |
| 1778051027 | 17.22° C | 77% | 1009.9 hPa | 0 mm | - | 0 W/m² | - |
| 1778050724 | 17.22° C | 78% | 1010.2 hPa | 0 mm | - | 0 W/m² | - |
| 1778050422 | 17.22° C | 78% | 1009.9 hPa | 0 mm | - | 0 W/m² | - |
| 1778050118 | 17.22° C | 78% | 1010 hPa | 0 mm | - | 0 W/m² | - |
| 1778049813 | 17.22° C | 78% | 1009.9 hPa | 0 mm | - | 0 W/m² | - |
* Rain latest hour (hover to see other rain measurements)
** Current wind speed in m/s (hover to see current wind gust speed)